Location: Aufkirchen
(47.9603°N, 11.3653°E)
Time: 14:10:23
(UTC+01:00)

Transit 2A Rocket - Pass Details

Date: 14 December 2020
Orbit: 592 x 910 km, 66.7° (Epoch: 21 January)

Event Time Altitude Azimuth Distance (km) Brightness Sun altitude
Rises 04:11:55 0° 325° (NW) 3,213 - -36.5°
Reaches altitude 10° 04:16:19 10° 359° (N) 2,193 - -35.7°
Maximum altitude 04:17:51 11° 17° (NNE) 2,073 - -35.5°
Exits shadow 04:18:45 11° 28° (NNE) 2,087 7.5 -35.3°
Drops below altitude 10° 04:19:21 10° 35° (NE) 2,129 7.7 -35.2°
Sets 04:23:23 0° 71° (ENE) 2,962 9.0 -34.6°
